www.pogodaiklimat.ru

Погода и климат >> Архив погоды >> Швейцария >> Майринген


ПОГОДА в Майрингене

  • Прогноз погоды в Майрингене
  • Монитор погоды в Майрингене

АРХИВ ПОГОДЫ в Майрингене

Время (UTC), дата Ветер
(напр.,м/с)
 
Видим.   Явления Облачность Т
(С)
Тd
(С)
f
(%)
Тe
(С)
Тes
(С)
Комфортность P
(гПа)
Po
(гПа)
Тmin
(С)
Tmax
(С)
R
(мм)
R24
(мм)
S
(см)
13 13.09 З 3
{7}
н/о н/о +23.8 +14.0 54 +26 +26 жарко 1028.0 961.4
14 13.09 З 5
{9}
н/о н/о +23.8 +12.8 50 +26 +26 жарко 1028.1 961.5
15 13.09 З 4
{9}
20 км ясно +23.4 +13.3 53 +27 +29 душно 1027.9 961.2
16 13.09 ЮВ 1
{6}
н/о н/о +22.5 +12.9 55 +25 +25 комфорт 1027.9 961.0
17 13.09 ЮВ 2
{4}
н/о н/о +20.6 +13.2 63 +24 +24 комфорт 1028.8 961.4
18 13.09 ЮВ 2
{9}
15 км ясно +18.6 +13.0 70 +20 +20 1029.6 961.7 +24.0
19 13.09 ЮВ 1
{3}
н/о н/о +17.1 +13.1 77 +18 +18 1030.2 961.9
20 13.09 ЮВ 2
{3}
н/о н/о +16.8 +12.8 77 +17 +17 1030.3 961.9
21 13.09 ЮВ 1
{4}
н/о н/о +15.7 +12.4 81 +16 +16 1030.9 962.2
22 13.09 ЮВ 1
{3}
н/о н/о +16.3 +12.4 78 +17 +17 1030.7 962.2
23 13.09 ЮВ 1
{2}
н/о н/о +14.3 +12.0 86 +15 +15 1030.8 961.8
00 14.09 штиль 0
{4}
30 км ясно +11.7 +11.1 96 +11 +11 1031.7 962.0
01 14.09 Ю 1
{2}
н/о н/о +11.9 +11.0 94 +12 +12 1031.1 961.5
02 14.09 ЮЗ 1
{2}
н/о н/о +12.8 +11.2 90 +14 +14 1030.4 961.1
03 14.09 ЮВ 1
{3}
20 км ясно +12.1 +10.8 92 +13 +13 1030.3 960.8
04 14.09 Ю 1
{2}
н/о н/о +11.8 +10.0 89 +12 +12 1029.9 960.4
05 14.09 С 1
{2}
н/о н/о +11.1 +9.8 92 +12 +12 1030.6 960.8
06 14.09 штиль 0
{3}
20 км ясно +10.2 +9.6 96 +9 +10 1031.6 961.5 +10.1
07 14.09 В 1
{1}
н/о н/о +13.9 +11.4 85 +15 +15 1030.6 961.5
08 14.09 ЮВ 1
{2}
н/о н/о +16.4 +11.5 73 +18 +18 1029.8 961.4
09 14.09 З 1
{2}
н/о н/о +18.4 +11.9 66 +20 +20 1029.1 961.2
10 14.09 З 2
{4}
н/о н/о +20.4 +14.3 68 +23 +23 комфорт 1028.5 961.1
11 14.09 З 2
{4}
н/о н/о +21.2 +14.5 66 +24 +24 комфорт 1027.3 960.2
12 14.09 З 2
{4}
20 км 6/0
[]
+22.8 +15.3 63 +27 +34 душно 1026.3 959.6
13 14.09 СЗ 3
{5}
н/о н/о +22.4 +15.2 64 +26 +26 жарко 1025.8 959.0
14 14.09 З 2
{4}
н/о н/о +22.8 +14.6 60 +26 +26 жарко 1025.2 958.6
15 14.09 З 6
{8}
н/о н/о +22.3 +15.9 67 +26 +26 жарко 1024.9 958.2
16 14.09 ЮЗ 4
{10}
н/о н/о +21.2 +15.6 70 +24 +24 комфорт 1025.5 958.5
17 14.09 ЮЗ 2
{7}
н/о н/о +20.1 +14.9 72 +23 +23 комфорт 1026.2 958.9
18 14.09 ЮВ 2
{10}
50 км 3/0
[]
+18.5 +15.0 80 +20 +20 1027.2 959.4 +23.1
19 14.09 ЮВ 2
{3}
н/о н/о +17.0 +14.3 84 +18 +18 1028.0 959.8
20 14.09 Ю 1
{3}
н/о н/о +17.1 +13.9 81 +18 +18 1027.6 959.5
21 14.09 В 1
{3}
н/о н/о +14.3 +13.0 92 +15 +15 1028.0 959.2
22 14.09 Ю 1
{2}
н/о н/о +13.7 +12.6 93 +15 +15 1027.8 958.9
23 14.09 ЮВ 1
{2}
н/о н/о +13.9 +12.7 92 +15 +15 1027.8 958.9
00 15.09 ЮВ 1
{3}
14 км дымка 1/0
[]
+14.1 +12.6 91 +14 +14 1027.8 959.0
01 15.09 штиль 0
{1}
н/о н/о +12.4 +11.7 95 +12 +12 1028.0 958.7
02 15.09 В 1
{2}
н/о н/о +13.2 +12.0 92 +13 +13 1027.7 958.6
03 15.09 ЮВ 1
{2}
н/о н/о +12.1 +11.3 95 +13 +13 1027.7 958.4
04 15.09 штиль 0
{1}
н/о н/о +11.9 +11.1 95 +11 +11 1027.7 958.3
05 15.09 СЗ 1
{2}
н/о н/о +10.7 +10.4 98 +11 +11 1028.5 958.8
06 15.09 ЮВ 1
{2}
н/о н/о +11.3 +10.6 95 +12 +12 1028.4 958.8 +10.5
07 15.09 В 1
{2}
н/о н/о +14.8 +12.0 83 +16 +16 1026.9 958.3
08 15.09
{2}
н/о н/о +17.9 +12.3 70 1025.7 957.9
09 15.09 З 1
{2}
20 км 1/0
[]
+19.6 +13.7 69 +23 +31 комфорт 1025.2 957.8
10 15.09 З 2
{4}
н/о н/о +21.0 +14.6 67 +25 +25 комфорт 1024.8 957.8
11 15.09 СЗ 2
{4}
н/о н/о +22.5 +15.3 64 +26 +26 жарко 1023.9 957.3
12 15.09 З 2
{4}
20 км 1/1 1410 м
[]
+23.1 +15.0 60 +27 +37 душно 1023.4 957.0
13 15.09 ЮЗ 1
{3}
н/о н/о +23.8 +16.0 62 +27 +27 жарко 1022.6 956.4
14 15.09 Ю 1
{3}
н/о н/о +24.1 +14.9 56 +27 +27 жарко 1021.9 955.8
15 15.09 Ю 1
{3}
20 км 1/1 1500 м
[]
+22.6 +17.0 71 +27 +32 душно 1021.7 955.3
16 15.09 ЮВ 1
{2}
н/о н/о +22.3 +15.6 66 +26 +26 жарко 1021.3 954.8
17 15.09 ЮВ 2
{3}
н/о н/о +21.2 +15.6 70 +24 +24 комфорт 1021.5 954.7
18 15.09 Ю 1
{3}
30 км 1/1 1410 м
[]
+20.0 +15.4 75 +23 +23 комфорт 1022.0 954.9 +24.1
19 15.09 ЮВ 1
{2}
н/о н/о +19.4 +15.1 76 +22 +22 комфорт 1022.4 955.2
20 15.09 ЮВ 1
{2}
н/о н/о +17.1 +14.6 85 +19 +19 1023.1 955.3
21 15.09 С 1
{2}
н/о н/о +16.9 +14.7 87 +18 +18 1023.3 955.4
22 15.09 Ю 1
{2}
н/о н/о +15.8 +14.4 91 +17 +17 1023.7 955.5
23 15.09 ЮВ 1
{2}
н/о н/о +13.9 +13.3 96 +15 +15 1024.3 955.6
00 16.09 ЮВ 1
{2}
25 км ясно +14.6 +13.7 94 +16 +16 1024.0 955.5
01 16.09 ЮВ 1
{2}
н/о н/о +13.7 +13.2 97 +15 +15 1024.0 955.3
02 16.09 штиль 0
{2}
н/о н/о +13.2 +12.8 97 +13 +13 1023.7 954.9
03 16.09 В 1
{2}
н/о н/о +12.6 +11.9 95 +13 +13 1023.6 954.7
04 16.09 ЮВ 1
{1}
н/о н/о +12.0 +11.7 98 +13 +13 1023.2 954.2
05 16.09 штиль 0
{2}
н/о н/о +12.4 +11.9 97 +12 +12 1023.1 954.2
06 16.09 С 1
{2}
н/о н/о +12.7 +12.0 96 +13 +13 1023.1 954.2 +12.0
07 16.09 штиль 0
{2}
н/о н/о +15.2 +14.0 93 +15 +15 1022.5 954.3
08 16.09 С 1
{1}
н/о н/о +18.2 +13.8 75 +20 +20 1021.7 954.2
09 16.09 ЮЗ 1
{2}
25 км ясно +19.9 +14.4 71 +24 +32 комфорт 1020.8 953.8
10 16.09 З 1
{2}
н/о н/о +22.3 +15.0 63 +26 +26 жарко 1019.7 953.3
11 16.09 СЗ 4
{5}
н/о н/о +22.8 +15.8 65 +27 +27 душно 1019.5 953.2
12 16.09 З 3
{6}
20 км 1/0
[]
+23.9 +15.8 60 +27 +36 жарко 1018.6 952.7
13 16.09 ЮЗ 1
{3}
н/о н/о +23.4 +14.9 59 +27 +27 душно 1018.1 952.1
14 16.09 Ю 1
{2}
н/о н/о +23.8 +15.9 61 +27 +27 жарко 1017.6 951.7
15 16.09 Ю 1
{3}
20 км 4/4 1500 м
[]
+23.4 +15.8 62 +28 +31 душно 1017.5 951.5
16 16.09 Ю 1
{2}
н/о н/о +22.8 +16.5 68 +27 +27 душно 1017.2 951.1
17 16.09 ЮВ 2
{3}
н/о н/о +21.0 +15.0 69 +25 +25 комфорт 1017.5 951.0
18 16.09 ЮВ 2
{3}
н/о н/о +20.1 +14.5 70 +23 +23 комфорт 1018.3 951.5 +24.9
19 16.09 Ю 1
{3}
н/о н/о +18.8 +14.3 75 +21 +21 комфорт 1018.9 951.8
20 16.09 штиль 0
{2}
н/о н/о +17.5 +14.1 80 +17 +17 1019.4 951.9
21 16.09 З 1
{3}
н/о н/о +15.1 +13.8 92 +16 +16 1020.1 952.0
22 16.09 ЮВ 1
{2}
н/о н/о +16.0 +13.8 87 +17 +17 1020.0 952.1
23 16.09 ЮВ 1
{2}
н/о н/о +15.5 +13.6 88 +16 +16 1019.9 951.9
00 17.09 В 1
{3}
15 км 5/5 1500 м
[]
+14.6 +13.2 91 +16 +16 1019.9 951.7
01 17.09 ЮВ 1
{1}
н/о н/о +13.6 +12.6 94 +14 +14 1019.9 951.5
02 17.09 З 1
{2}
н/о н/о +13.0 +12.3 96 +14 +14 1020.0 951.4
03 17.09 В 1
{2}
н/о н/о +13.2 +12.2 94 +14 +14 1019.6 951.1
04 17.09 ЮВ 1
{2}
н/о н/о +12.6 +12.0 96 +12 +12 1019.7 951.0
05 17.09 В 1
{1}
н/о н/о +13.4 +12.4 94 +14 +14 1019.6 951.1
06 17.09 штиль 0
{2}
18 км 3/3 1500 м
[]
+12.9 +12.2 96 +12 +13 1019.7 951.1 +11.6
07 17.09 СВ 1
{1}
н/о н/о +14.4 +13.2 92 +15 +15 1019.4 951.2
08 17.09 Ю 1
{1}
н/о н/о +16.5 +14.0 85 +18 +18 1019.0 951.3
09 17.09 ЮЗ 1
{1}
18 км 1/1 1500 м
[]
+18.3 +14.4 78 +20 +28 1018.1 950.9
10 17.09 СЗ 1
{2}
н/о н/о +19.9 +13.5 67 +23 +23 комфорт 1017.4 950.6
11 17.09 З 1
{5}
н/о н/о +21.6 +13.3 59 +24 +24 комфорт 1016.6 950.3
12 17.09 З 3
{7}
н/о н/о +22.9 +14.9 61 +27 +27 душно 1015.9 949.9
13 17.09 З 3
{7}
н/о н/о +23.6 +15.6 61 +27 +27 жарко 1015.6 949.8
14 17.09 ЮВ 2
{6}
н/о н/о +22.1 +15.6 67 +26 +26 душно 1015.8 949.6
15 17.09 Ю 1
{7}
11 км мгла 5/0 2000 м
[]
+21.1 +16.1 73 +24 +28 комфорт 1015.8 949.4
16 17.09 З 3
{7}
н/о н/о +22.0 +13.8 60 +25 +25 комфорт 1015.6 949.4
17 17.09 СВ 2
{9}
н/о н/о +20.5 +13.9 66 +24 +24 комфорт 1016.2 949.6
18 17.09 СЗ 2
{9}
н/о н/о +18.8 +12.8 68 +20 +20 1017.0 950.0 +23.6
19 17.09 Ю 2
{9}
н/о н/о +17.9 +13.1 73 +19 +19 1018.0 950.7
20 17.09 С 3
{9}
н/о н/о +19.7 +10.9 57 +21 +21 комфорт 1017.8 950.9
21 17.09 СВ 4
{11}
20 км 3/0 2000 м
[]
+18.6 +11.7 64 +19 +19 1018.2 951.1
22 17.09 ЮВ 1
{3}
н/о н/о +15.4 +11.9 80 +17 +17 1019.2 951.2
23 17.09 В 2
{3}
н/о н/о +14.7 +11.9 83 +15 +15 1019.3 951.2
00 18.09 ЮВ 1
{11}
15 км 4/4 1320 м
[]
+13.9 +12.0 88 +14 +14 1019.6 951.3
01 18.09 штиль 0
{1}
н/о н/о +13.6 +11.8 89 +13 +13 1019.4 951.0
02 18.09 В 1
{2}
н/о н/о +12.9 +11.3 90 +13 +13 1019.5 950.9
03 18.09 В 2
{4}
н/о н/о +13.6 +11.5 87 +13 +13 1019.4 951.0
04 18.09 В 1
{2}
н/о н/о +15.3 +11.1 76 +17 +17 1019.1 951.1
05 18.09 З 1
{5}
н/о н/о +14.9 +11.0 77 +16 +16 1019.4 951.3
06 18.09 В 1
{5}
12 км мгла 10/10 720 м
[]
+14.4 +10.9 79 +16 +16 1019.8 951.6 +12.4
07 18.09 З 1
{3}
н/о н/о +14.5 +11.1 80 +15 +15 1019.9 951.7
08 18.09 З 1
{2}
н/о н/о +15.2 +10.8 75 +16 +16 1019.7 951.7
09 18.09 З 4
{6}
н/о н/о +15.4 +10.3 72 +14 +14 1019.6 951.6
10 18.09 ЮЗ 5
{8}
н/о н/о +15.4 +10.7 74 +14 +14 1019.4 951.4
11 18.09 СЗ 4
{10}
н/о н/о +16.3 +10.9 70 +16 +16 1019.1 951.4
12 18.09 СЗ 3
{10}
н/о н/о +17.0 +11.0 68 +17 +17 1019.5 951.9
13 18.09 СЗ 6
{11}
н/о н/о +16.4 +10.5 68 +15 +15 1019.8 952.0
14 18.09 СЗ 7
{10}
н/о н/о +15.6 +10.0 69 +14 +14 1020.3 952.3
15 18.09 СЗ 5
{11}
15 км 10/10 330 м
[]
+15.5 +10.1 70 +14 +14 1020.3 952.3
16 18.09 З 1
{9}
н/о н/о +15.3 +10.1 71 +16 +16 1020.4 952.3
17 18.09 З 2
{6}
н/о н/о +15.1 +10.0 72 +15 +15 1020.5 952.4
18 18.09 ЮЗ 1
{11}
н/о н/о +14.9 +10.0 72 +15 +15 1020.9 952.7 +17.7
19 18.09 ЮВ 1
{1}
н/о н/о +14.4 +11.1 81 +16 +16 1021.6 953.2
20 18.09 ЮВ 1
{3}
н/о н/о +14.6 +11.1 80 +15 +15 1021.5 953.2
21 18.09 ЮВ 1
{3}
н/о н/о +14.5 +10.9 79 +16 +16 1021.5 953.2
22 18.09 З 2
{3}
н/о н/о +14.2 +9.8 75 +14 +14 1021.6 953.2
23 18.09 З 2
{3}
н/о н/о +13.9 +9.6 75 +14 +14 1021.7 953.2
00 19.09 З 1
{4}
н/о н/о +13.6 +9.4 76 +14 +14 1022.0 953.4
01 19.09 З 2
{3}
н/о н/о +13.5 +7.8 68 +13 +13 1021.8 953.2
02 19.09 З 1
{4}
н/о н/о +13.0 +8.0 72 +14 +14 1021.8 953.1
03 19.09 З 1
{4}
н/о н/о +12.3 +7.7 73 +12 +12 1021.8 952.9
04 19.09 С 2
{5}
н/о н/о +12.3 +7.4 72 +12 +12 1021.8 952.9
05 19.09 СЗ 2
{8}
н/о н/о +12.1 +6.1 67 +12 +12 1022.3 953.3
06 19.09 З 2
{8}
30 км 10/10 330 м
[]
+11.7 +5.3 65 +11 +11 1022.9 953.8 +11.1
07 19.09 З 1
{4}
н/о н/о +11.5 +5.9 68 +11 +11 1023.5 954.3
08 19.09 З 2
{4}
н/о н/о +11.7 +6.5 70 +11 +11 1023.6 954.5
09 19.09 В 1
{4}
30 км 10/10 330 м
[]
+12.8 +6.5 65 +13 +13 1023.8 954.9
10 19.09 З 2
{4}
н/о н/о +13.6 +7.3 66 +13 +13 1023.6 954.9
11 19.09 СЗ 3
{8}
н/о н/о +14.1 +6.9 62 +13 +13 1023.5 954.9
12 19.09 СЗ 5
{11}
н/о н/о +14.6 +7.4 62 +13 +13 1023.1 954.7
13 19.09 С 6
{10}
н/о н/о +15.2 +7.9 62 +14 +14 1023.2 954.9
14 19.09 СЗ 3
{7}
н/о н/о +15.3 +7.6 60 +15 +15 1023.0 954.8
15 19.09 С 3
{10}
н/о н/о +15.4 +7.5 59 +15 +15 1022.9 954.7
16 19.09 З 1
{6}
н/о н/о +15.2 +7.5 60 +17 +17 1023.0 954.7
17 19.09 В 1
{2}
н/о н/о +14.7 +8.6 67 +15 +15 1023.4 955.0
18 19.09 СВ 1
{10}
н/о н/о +14.2 +8.9 70 +15 +15 1023.8 955.2 +16.2
19 19.09 ЮВ 1
{1}
н/о н/о +13.8 +8.6 71 +15 +15 1024.0 955.3
20 19.09 ЮВ 2
{2}
н/о н/о +13.2 +9.4 78 +13 +13 1024.2 955.4
21 19.09 ЮВ 1
{2}
н/о н/о +12.1 +9.2 82 +12 +12 1024.7 955.6
22 19.09 Ю 1
{2}
н/о н/о +12.3 +9.3 82 +13 +13 1024.8 955.7
23 19.09 СВ 1
{2}
н/о н/о +13.0 +6.4 64 +14 +14 1024.8 955.9
00 20.09 СЗ 2
{3}
н/о н/о +11.6 +7.3 75 +11 +11 1025.1 955.8
01 20.09 СЗ 1
{3}
н/о н/о +10.5 +6.6 77 +11 +11 1025.2 955.7
02 20.09 В 1
{1}
н/о н/о +9.9 +7.2 83 +10 +10 1025.3 955.6
03 20.09 С 1
{3}
12 км дымка 1/1 1020 м
[]
+8.1 +6.3 88 +8 +8 1025.7 955.5
04 20.09 штиль 0
{2}
н/о н/о +8.4 +6.4 87 +8 +8 1025.7 955.6
05 20.09 штиль 0
{1}
н/о н/о +6.8 +6.1 95 +6 +6 1026.3 955.8
06 20.09 ЮВ 1
{3}
н/о н/о +6.8 +6.2 96 +7 +7 1026.6 956.0 +6.5
07 20.09 В 1
{1}
н/о н/о +9.8 +8.0 89 +10 +10 1025.9 956.1
08 20.09 СЗ 1
{1}
н/о н/о +11.8 +8.1 78 +13 +13 1025.4 956.2
09 20.09 ЮЗ 1
{2}
40 км ясно +13.3 +8.4 72 +14 +22 1024.8 956.0
10 20.09 З 2
{3}
н/о н/о +15.2 +9.0 66 +15 +15 1023.9 955.6
11 20.09 З 3
{5}
н/о н/о +16.9 +9.7 63 +17 +17 1023.0 955.1

 

Местоположение метеостанции Майринген (Швейцария): широта 46.73 долгота 8.17 высота над уровнем моря 595 м.

В архиве по умолчанию представлена погода в Майрингене за последнюю неделю. Архивные данные за месяц целиком и за предыдущие месяцы, начиная с января 2011 года, Вы можете получить, выбрав интересующий диапазон дат из раскрывающегося списка и нажав кнопку "Ввод!".


*Определитесь, кто Вы:
робот инопланетянин человек

Внимание! Время в таблицах - всемирное. Для получения местного времени необходимо прибавить поправку, которая равна 1 ч.

Смотрите также архив погоды в соседних городах и на ближайших метеорологических станциях:

Погода в Бриенце (Швейцария) (8 км)
Погода в Гисвиле (Швейцария) (10 км)
Погода на Титлисе (Швейцария) (20 км)
Погода в Энгельберге (Швейцария) (22 км)
Погода на Гримзеле (Швейцария) (22 км)
Погода в Интерлакене (Швейцария) (24 км)
Погода на Юнгфрауйохе (Швейцария) (25 км)
Погода в Шюпфхайме (Швейцария) (27 км)
Погода в Улрихене (Швейцария) (28 км)
Погода на Пилатусе (Швейцария) (28 км)

Пояснения к столбцам:

Ветер - указаны скорость ветра в м/с - средняя за 10 мин, порывы в срок и между сроками (в фигурных скобках) и направление, откуда дует ветер: С - северный, СВ - северо-восточный, В - восточный, ЮВ - юго-восточный, Ю - южный, ЮЗ - юго-западный, З - западный, СЗ - северо-западный.
Видимость - горизонтальная дальность видимости в метрах или километрах. При видимости от 1 до 10 км при отсутствии осадков обычно наблюдается дымка, при ухудшении видимости до 1 км и менее - туман. В сухую погоду видимость может ухудшаться дымом, пылью или мглою.
Явления - указаны атмосферные явления, наблюдавшиеся в срок или в последний час перед сроком; фигурными скобками обозначены явления, наблюдавшиеся между сроками (за 1-3 часа до срока); квадратными скобками обозначены град или гололедные отложения с указанием их диаметра в мм.
Облачность - указаны через наклонную черту общая и нижняя облачность в баллах и высота нижней границы облаков в метрах; квадратными скобками обозначены формы облаков: Ci - перистые, Cs - перисто-слоистые, Cc - перисто-кучевые, Ac - высококучевые, As - высокослоистые, Sc - слоисто-кучевые, Ns - слоисто-дождевые, Cu - кучевые, Cb - кучево-дождевые. Подробнее классификацию облаков см. в Атласе облаков (PDF).
T - Температура воздуха - температура, измеренная на высоте 2 м над землей.
Td - Температура точки росы - температура, при понижении до которой содержащийся в воздухе водяной пар достигнет насыщения.
f - Относительная влажность воздуха - влажноcть воздуха, измеренная на высоте 2 м над землей.
Te - Эффективная температура - температура, которую ощущает одетый по сезону человек в тени. Характеристика душности погоды. При расчете учитывается влияние влажности воздуха и скорости ветра на теплоощущения человека.
Tes - Эффективная температура на солнце - температура, которую ощущает человек, с поправкой на солнечный нагрев. Характеристика знойности погоды. Зависит от высоты солнца над горизонтом, облачности и скорости ветра. Ночью, в пасмурную погоду, а также при ветре 12 м/с и более поправка равна нулю.
P - Атмосферное давление - приведенное к уровню моря атмосферное давление.
Po - Атмосферное давление - измеренное на уровне метеостанции атмосферное давление.
Tmin - Минимальная температура - минимум температуры воздуха на высоте 2 м над землей.
Tmax - Максимальная температура - максимум температуры воздуха на высоте 2 м над землей.
R - Количество осадков - Количество выпавших осадков за период времени, мм. При наведении курсора мыши на число - период времени, за который выпало указанное количество осадков.
R24 - Количество осадков - Количество выпавших осадков за 24 часа, мм.
S - Снежный покров - Высота снежного покрова, см. При наведении курсора мыши на число - состояние снежного покрова и степень покрытия местности в баллах.